Regional Weather Roundup
Issued by NWS Wakefield, VA

Home | Current Version | Previous Version | Text Only | Print | Product List | Glossary Off
Versions: 1 2 3 4 5 6 7 8 9 10 11 12 13 14 15 16 17 18 19 20 21 22 23 24 25 26 27 28 29 30 31 32 33 34 35 36 37 38 39 40 41 42 43 44 45 46 47 48 49 50

000
ASUS41 KAKQ 050410
RWRAKQ

REGIONAL WEATHER ROUNDUP
NATIONAL WEATHER SERVICE WAKEFIELD VA
1100 PM EST WED MAR 04 2015

Note: "fair" indicates few or no clouds below 12,000 feet with no
significant weather and/or obstructions to visibility. * = Denotes
station may not report precipitation (e.g., rain,snow,etc.),
thunder or fog.

VAZ042-051-052>054-056-050500-
NORTHERN VIRGINIA

CITY           SKY/WX    TMP DP  RH WIND       PRES   REMARKS
WASH NATIONAL  LGT RAIN  46  42  86 N12       29.97R
DULLES         LGT RAIN  41  39  93 N9        29.96R FOG
FORT BELVOIR   RAIN      45  45 100 VRB5      29.95R FOG
QUANTICO       RAIN      45  43  93 NE9       29.96R FOG
FREDERICKSBRG* HVY RAIN  50  50 100 N7        29.93R
STAFFORD*      RAIN      46  32  58 N10G16    29.98R
WARRENTON      RAIN      45  45 100 N7        29.95R
CULPEPER*      RAIN      45  45 100 N3        29.95R
MANASSAS*      CLOUDY    43  43 100 N8        29.95R
LEESBURG*      LGT RAIN  41  41 100 N7        29.97R
WINCHESTER     RAIN      43  37  81 N7        29.97S
FRONT ROYAL*   CLOUDY    41  41 100 E3        29.95S
LURAY*         RAIN      45  45 100 NE13      29.93S
$$

VAZ048-049-060>072-079>083-050500-
CENTRAL AND SOUTH CENTRAL VIRGINIA

CITY           SKY/WX    TMP DP  RH WIND       PRES   REMARKS
RICHMOND       LGT RAIN  53  51  93 N3        29.92R FOG
CHESTERFIELD*  CLOUDY    54  43  66 CALM      29.93S
PETERSBURG*    LGT RAIN  56  53  90 E5        29.90S
HANOVER        LGT RAIN  50  49  96 CALM      29.93S VSB 1/2
TAPPAHANNOCK*  LGT RAIN  50  48  94 CALM      29.92S VSB 3/4
QUINTON*       CLOUDY    51  51  98 CALM      29.91R
CHARLOTTSVILLE LGT RAIN  46  45  96 CALM      29.92R VSB 1/2
GORDONSVILLE*  CLOUDY    42  41  99 CALM      29.93R FOG
ORANGE*        HVY RAIN  46  46 100 N8        29.96R
LOUISA*        DRIZZLE   48  48 100 CALM      29.92R
BUMPASS*       CLOUDY    49  48  99 N3        29.92R VSB 1/2
FARMVILLE*     CLOUDY    53  53 100 NE6       29.90S FOG
CREWE*         CLOUDY    54  51  92 N3        29.91R
FORT PICKETT*  CLOUDY    54  52  92 N6        29.90S
CHASE CITY*    CLOUDY    57  56  97 NE3       29.89S
CLARKSVILLE*   MOCLDY    55  52  88 N7        29.87S
SOUTH HILL*    CLOUDY    57  53  88 CALM      29.95R
LAWRENCEVILLE* CLOUDY    56  54  91 CALM      29.89R
EMPORIA*       MOCLDY    55  54  94 CALM      29.90F
$$

VAZ088>098-050500-
SOUTHEAST VIRGINIA

CITY           SKY/WX    TMP DP  RH WIND       PRES   REMARKS
NORFOLK        FOG       45  43  93 NE6       29.88F VSB 1/4
VIRGINIA BEACH CLOUDY    49  46  90 NW3       29.88R
NORFOLK NAVAL  FOG       50  46  86 CALM      29.90F VSB 3/4
WEST POINT*    CLOUDY    53  51  92 CALM      29.93R
SALUDA*        CLOUDY    47  46  97 CALM      29.90R VSB 1/2
NEWPORT NEWS   FOG       53  50  89 CALM      29.89F VSB 1/4
LANGLEY AFB    FOG       50  50 100 N7        29.89R VSB 1/2
FORT EUSTIS    FOG       52 N/A N/A NE2       29.87S VSB 1/2
WILLIAMSBURG*  PTCLDY    54  52  94 CALM      29.90F
HR EXEC AP*    MOCLDY    48  45  87 CALM      29.92S
FRANKLIN*      PTCLDY    55  53  94 CALM      29.90S
WAKEFIELD      CLOUDY    52  50  93 CALM      29.90S FOG
$$

VAZ020-022-025-037-045-050500-
WEST CENTRAL AND SOUTHWEST VIRGINIA

CITY           SKY/WX    TMP DP  RH WIND       PRES   REMARKS
STAUNTON*      LGT RAIN  44  43  96 CALM      29.94S VSB 3/4
WAYNESBORO*    CLOUDY    46  46 100 W3        29.93R
HOT SPRINGS VA LGT RAIN  37  37 100 NW15      29.89F VSB 1/4
LYNCHBURG      LGT RAIN  48  48 100 NW3       29.93R FOG
DANVILLE       CLOUDY    57  50  77 NE9       29.89R
SOUTH BOSTON*  CLOUDY    55  51  85 N5        29.89S
MARTINSVILLE   CLOUDY    56  49  77 N3        29.91R
ROANOKE        LGT RAIN  46  45  96 CALM      29.95R FOG
BLACKSBURG     DRIZZLE   44  44  99 CALM      29.96S
DUBLIN*        CLOUDY    47  47 100 N6        29.94S
MARION*        CLOUDY    48  47  95 CALM      29.95R
HILLSVILLE*    CLOUDY    47  46  94 NE7       29.91S
RICHLANDS*     RAIN      38  36  93 NW5       29.97R
WISE*          LGT RAIN  36  36 100 N7        29.99R
ABINGDON*      CLOUDY    46  43  89 N6        29.92F
$$

MDZ021>025-VAZ099-100-050500-
SOUTHERN MARYLAND AND THE DELMARVA PENINSULA

CITY           SKY/WX    TMP DP  RH WIND       PRES   REMARKS
PATUXENT RIVER LGT RAIN  45  44  97 NW3       29.91R VSB 1/2
BAY BRIDGE APT LGT RAIN  36  36 100 N8        29.95R
LEONARDTOWN    CLOUDY    46  45  93 CALM      29.93S VSB 1
DOVER          RAIN      40  40 100 N7        29.93S FOG
GEORGETOWN     LGT RAIN  43  42  97 NW3       29.93R FOG
EASTON         RAIN      44  44 100 CALM      29.96R VSB 1
CAMBRIDGE      CLOUDY    45  43  93 CALM      29.91S
SALISBURY      FOG       49  45  86 NW7       29.92R VSB 1/2
OCEAN CITY     FOG       42  42 100 CALM      29.91S VSB 1/2
WALLOPS ISLAND FOG       46  46 100 CALM      29.90S VSB 1/2
ACCOMACK*      FOG       46  45  93 E3        29.89F VSB 1/4
$$

NCZ012>017-030>032-050500-
NORTH CENTRAL AND EASTERN NORTH CAROLINA

CITY           SKY/WX    TMP DP  RH WIND       PRES   REMARKS
ROANOKE RAPIDS FAIR      57  54  88 NW5       29.88S
RALEIGH        MOCLDY    66  53  63 SW14      29.89R
ELIZABETH CITY PTCLDY    62  57  83 S16G23    29.90S
AHOSKIE*       PTCLDY    66  59  80 S8        29.88F
EDENTON*       PTCLDY    61  57  86 S9        29.92S
CURRITUCK*     PTCLDY    64  57  77 S7        29.90S
KILL DEVIL HLS PTCLDY    62  60  95 SW10G21   29.93R
MANTEO         PTCLDY    57  55  94 SW17      29.95R
CAPE HATTERAS  CLOUDY    57  57 100 SW10      29.99S FOG
TARBORO*       FAIR      67  60  78 S10       29.92R
GOLDSBORO      PTCLDY    66  66  99 S12G17    29.91S
WASHINGTON     CLEAR     66  61  82 SW12G21   29.94S
GREENVILLE     CLEAR     64  61  88 SW10      29.95S
NEW BERN       PTCLDY    65  60  84 SW12      29.98R
WILMINGTON     MOCLDY    67  64  90 SW18G25   30.00S
$$

VAZ048-050500-
ELSEWHERE

CITY           SKY/WX    TMP DP  RH WIND       PRES   REMARKS
HARRISBURG PA  LGTSLEET  36  33  89 NW9       29.97R
BALTIMORE      LGT RAIN  41  40  96 N3        29.95R FOG
ANNAPOLIS      LGT RAIN  40  39  97 N6        29.94R FOG
ANDREWS AFB    LGT RAIN  43  42  99 N9        29.93R
PHILADELPHIA   LGT RAIN  41  40  96 NW8       29.94S FOG
HENDERSON NC   PTCLDY    60  53  76 CALM      29.87F
GREENSBORO     MOCLDY    65  57  75 SW14      29.87R
ROCKY MOUNT    PTCLDY    66  60  81 S12       29.91R
$$

VAZ100-050500-
MARINE

STATION/POSITION TIME  TEMP    WIND        PRES    WAVE   SWELL
                       AIR SEA DIR/SP/G            HT/PER HT/PER
                 (UTC) (F)     (DEG/KT/KT) (MB)    (FT/S) (FT/S)
BRANDYWINE LGT   0400   40 31   10/  8/ 11 1013.2R
CAPE MAY NJ      0400   39 35  350/  4/  7 1012.7S
LEWES DE         0400   37 32  320/  4/  5 1013.1R
15NM E FENWICK I 0400   37 36              1012.3F   4/ 7
OCEAN-CITY-INLET 0400   40 33   20/  4/  5 1012.4R
WACHAPREAGUE VA  0400   43 39   CALM  /  2 1012.1S
THOMAS POINT MD  0400   40 32  350/ 11/ 11 1014.9R
COVE POINT MD    0400   36     350/ 14/ 15 1013.1S
SOLOMONS ISLAND  0400      33                N/A
BISHOPS HEAD MD  0400   37 36  160/  4/  6 1012.7R
CAMBRIDGE MD     0400   43 32  310/  6/  8 1013.0R
LEWISETTA VA     0400   42 34     CALM     1012.6R
RAPPAHANNOCK LGT 0400           40/  7/  7 1012.6R
STINGRAY PT      0400   37 33  320/  2/  4   N/A     0
YORK RVR RNG VA  0400   45     350/ 10/ 12 1011.8R
YORKTOWN VA      0400   49 36  300/  2/  5 1011.9F
DOMINION TERM VA 0400   43      CALM  /  2 1012.0F
KIPTOPEKE VA     0400      39   10/  2/  2   N/A
CHES BAY BRIDGE  0400   41 34   20/  5/  6 1011.5F
CAPE HENRY VA    0400   43     360/  3/  5 1010.8F
CHESAPEAKE LGHT  0300   54     190/ 20/ 20 1011.7F
WILLOUBY STN VA  0400   47     110/  3/  4 1012.4F
S CRANEY ISL VA  0400           CALM  /  1 1012.0F
CAPE HENRY BUOY  0400      36                N/A     3/ 7
1ST LANDING BUOY 0400   39 35  110/  4/  4 1011.4F   1/ 4
OFFSHORE WE BUOY 0400      37                N/A     4/ 7   2/11
64NM E OF VA BCH 0400   55 52  220/ 23/ 27 1012.0S   7/ 7
DUCK PIER NC     0400   59 37  200/ 16/ 21 1012.1R
44100 DUCK FRF   0400      38                N/A     4/ 7   2/11
44056 DUCK FRF   0400      37                N/A     3/10
OREGON INLET NC  0400   52 49  200/ 19/ 22 1014.4R
HATTERAS NC      0400   59 46  220/ 12/ 18 1015.7S
CAPE LOOKOUT NC  0300   61     220/ 13/ 16 1015.8R
$$



USA.gov is the U.S. government's official web portal to all federal, state and local government web resources and services.